Starlink 35214

operational
NORAD ID: 65747 Int'l Des: 2025-216 Owner: SPXS Country: US Constellation: starlink
NOTLE

About Starlink 35214

Description loading...

Live Position

Loading 3D Globe...

Upcoming Passes

Altitude History

Altitude vs Time

uPlot chart will show altitude changes over time

Two-Line Element Set

1 65747C 25216P 25277.73173611 -.01309400 00000+0 -52070-2 0 2770
2 65747 53.1544 343.3180 0000740 69.4346 219.5569 15.87266888 15
Epoch: Oct 4, 2025 • Age: 27 hours

Current Status

Altitude 315.5 km
Velocity 7.72 km/s
Sub-Earth Point 37.10°N, 45.47°W
Launch Date Sep 25, 2025
Age 9 days
Type internet

Technical Details

Classification Payload
Mass 575.00 kg
Dry Mass 530.00 kg
Total Mass 575.00 kg
Length 0.30 m
Diameter 4.10 m
Span 29.00 m
Shape Box + pan
Manufacturer SPXS
Bus Type Starlink V2MO
Phase Status In Orbit
Owner/State SPXS/US

Large Constellations

Loading constellations...